Вернуться в каталог

WORLDVIEW 2

АктивенНаукаSSO
NORAD 35946·PAYLOAD·🇺🇸 United States

Запущен Oct 8, 2009 с Vandenberg Space Force Base

Loading…

Ближайшие Пролёты (ближайшие 24 часа)

TLE

СвежийSource: Space-Track

Эпоха: Sep 14, 2026, 13:56 UTC

1 35946U 09055A   26257.58116763  .00000069  00000-0  37337-4 0  9997
2 35946  98.4722 329.8025 0003554 329.3316  30.7663 14.37920019888492

Отслеживайте WORLDVIEW 2 в реальном времени с AllMySat

Download on the App Store